Location: Vancouver
(49.2500°N, 123.1330°W)
Time: 19:09:28
(UTC-07:00)

Iridium 21 - Visible Passes

Search period start: 30 August 2016 00:00
Search period end: 09 September 2016 00:00
Orbit: 776 x 779 km, 86.4° (Epoch: 30 August)

Date Brightness Start Highest point End Pass type
(mag) Time Alt. Az. Time Alt. Az. Time Alt. Az.
30 Aug 7.0 01:00:46 28° ENE 01:00:46 28° ENE 01:04:11 10° NNE visible
30 Aug 6.6 02:41:15 35° NW 02:41:15 35° NW 02:45:08 10° N visible
31 Aug 7.6 00:27:26 18° ENE 00:27:26 18° ENE 00:29:58 10° NNE visible
31 Aug 6.3 02:07:55 47° NNW 02:07:55 47° NNW 02:11:47 10° N visible
31 Aug 7.8 03:48:24 10° WNW 03:48:24 10° WNW 03:49:18 10° NW visible
31 Aug 8.0 23:54:07 11° ENE 23:54:07 11° ENE 23:54:40 10° NE visible
01 Sep 6.5 01:34:35 45° NNE 01:34:35 45° NNE 01:38:14 10° N visible
01 Sep 7.4 03:15:04 17° WNW 03:15:04 17° WNW 03:17:51 10° NNW visible
02 Sep 6.9 01:01:15 33° NE 01:01:15 33° NE 01:04:31 10° NNE visible
02 Sep 7.1 02:41:44 26° NW 02:41:44 26° NW 02:45:00 10° NNW visible
03 Sep 7.4 00:27:55 22° NE 00:27:55 22° NE 00:30:31 10° NNE visible
03 Sep 6.7 02:08:23 36° NNW 02:08:23 36° NNW 02:11:48 10° N visible
03 Sep 7.8 23:54:34 14° NE 23:54:34 14° NE 23:56:05 10° NE visible
04 Sep 6.7 01:35:02 40° N 01:35:02 40° N 01:38:22 10° N visible
04 Sep 7.8 03:15:31 13° NW 03:15:31 13° NW 03:17:07 10° NW visible
05 Sep 6.9 01:01:41 35° NNE 01:01:41 35° NNE 01:04:45 10° N visible
05 Sep 7.5 02:42:10 19° NW 02:42:10 19° NW 02:44:45 10° NNW visible
06 Sep 7.3 00:28:20 25° NE 00:28:20 25° NE 00:30:56 10° NNE visible
06 Sep 7.2 02:08:48 27° NW 02:08:48 27° NW 02:11:43 10° NNW visible
06 Sep 7.7 23:54:58 17° NE 23:54:58 17° NE 23:56:48 10° NNE visible
07 Sep 7.0 01:35:27 33° NNW 01:35:27 33° NNW 01:38:25 10° N visible
07 Sep 8.0 23:21:36 11° NE 23:21:36 11° NE 23:21:56 10° NE visible
08 Sep 7.0 01:02:05 33° N 01:02:05 33° N 01:04:55 10° N visible
08 Sep 7.8 02:42:33 14° NW 02:42:33 14° NW 02:44:16 10° NNW visible
